TimeCST,TemperatureF,Dew PointF,Humidity,Sea Level PressureIn,VisibilityMPH,Wind Direction,Wind SpeedMPH,Gust SpeedMPH,PrecipitationIn,Events,Conditions,WindDirDegrees,DateUTC
12:53 AM,55.0,48.0,77,30.09,10.0,North,4.6,-,0.00,Rain,Light Rain,350,2013-02-14 06:53:00
1:53 AM,54.0,48.0,80,30.08,10.0,North,3.5,-,0.00,,Clear,360,2013-02-14 07:53:00
2:53 AM,53.1,48.0,83,30.07,10.0,North,4.6,-,N/A,,Clear,10,2013-02-14 08:53:00
3:53 AM,52.0,46.9,83,30.06,10.0,North,5.8,-,N/A,,Clear,360,2013-02-14 09:53:00
4:53 AM,52.0,46.9,83,30.06,10.0,North,3.5,-,N/A,,Clear,10,2013-02-14 10:53:00
5:53 AM,51.1,48.0,89,30.07,10.0,North,4.6,-,N/A,,Clear,360,2013-02-14 11:53:00
6:53 AM,50.0,46.9,89,30.09,10.0,NNW,3.5,-,N/A,,Clear,340,2013-02-14 12:53:00
7:53 AM,52.0,50.0,93,30.11,10.0,NNW,3.5,-,N/A,,Clear,340,2013-02-14 13:53:00
8:53 AM,61.0,52.0,72,30.13,10.0,NNW,3.5,-,N/A,,Clear,340,2013-02-14 14:53:00
9:53 AM,66.9,52.0,59,30.15,10.0,Variable,6.9,-,N/A,,Clear,0,2013-02-14 15:53:00
10:53 AM,70.0,48.0,46,30.14,10.0,ENE,5.8,-,N/A,,Clear,60,2013-02-14 16:53:00
11:53 AM,72.0,44.1,37,30.13,10.0,ENE,8.1,-,N/A,,Clear,60,2013-02-14 17:53:00
12:53 PM,73.0,37.0,27,30.10,10.0,ENE,10.4,-,N/A,,Clear,60,2013-02-14 18:53:00
1:53 PM,72.0,35.1,26,30.06,10.0,NE,8.1,-,N/A,,Clear,40,2013-02-14 19:53:00
2:53 PM,72.0,41.0,33,30.03,10.0,ENE,10.4,-,N/A,,Clear,60,2013-02-14 20:53:00
3:53 PM,71.1,39.9,32,30.04,10.0,ENE,12.7,-,N/A,,Clear,60,2013-02-14 21:53:00
4:53 PM,69.1,39.9,35,30.03,10.0,ENE,11.5,-,N/A,,Clear,60,2013-02-14 22:53:00
5:53 PM,64.9,46.0,50,30.04,10.0,ENE,12.7,-,N/A,,Clear,70,2013-02-14 23:53:00
6:53 PM,60.1,46.0,60,30.05,10.0,East,8.1,-,N/A,,Clear,80,2013-02-15 00:53:00
7:53 PM,57.0,46.0,67,30.06,10.0,East,5.8,-,N/A,,Clear,90,2013-02-15 01:53:00
8:53 PM,55.9,46.0,69,30.06,10.0,East,5.8,-,N/A,,Clear,80,2013-02-15 02:53:00
9:53 PM,55.0,46.9,74,30.07,10.0,ESE,3.5,-,N/A,,Clear,110,2013-02-15 03:53:00
10:53 PM,55.0,48.0,77,30.07,10.0,East,4.6,-,N/A,,Clear,90,2013-02-15 04:53:00
11:53 PM,51.1,46.0,83,30.06,10.0,Calm,Calm,-,N/A,,Clear,0,2013-02-15 05:53:00